Weather in To-shima

Japan     34°46′15″N   139°22′04″E
temp.,
°C
wind,
m/s
gust,
m/s
humid.,
%
clouds,
%
prec.,
mm/h
press.,
hPa
HPBL,
m
4 march, thu
thu400:00+10ene7661100 0.0 10321303
03:00+10ne666099 0.0 10321275
06:00+10ne6564100 0.0 10321057
09:00+10ne6566100 0.1 1033884
12:00+11nne777028 0.0 1031757
15:00+11ne667764 0.2 1029664
18:00+12ene3574100 0.6 1030800
21:00+13ese6768100 1.3 10301092
5 march, fri
fri500:00+14ese666770 0.3 10291093
03:00+13ese656481 0.6 1027927
06:00+14ese556693 0.0 1027823
09:00+14ese556695 0.2 10261092
12:00+14ese556699 0.2 1023968
15:00+15se3359100 0.3 10211099
18:00+14ese3475100 0.5 1022611
21:00+14n4385100 2.2 1021255
6 march, sat
sat600:00+13nne4389100 1.1 1020265
03:00+14nne3390100 2.0 1018255
06:00+14ne4593100 4.1 1018291
09:00+14nne7892100 9.1 1017418
12:00+14nne9990100 0.2 1015383
15:00+15nne7883100 0.2 1013392
18:00+16nne788499 0.0 1015509
21:00+15ne111283100 0.1 1018928
7 march, sun
sun700:00+13ne13147899 0.1 1019982
03:00+11ne14148099 0.1 1020958
06:00+10ne131377100 0.0 1023983
09:00+10ne121377100 0.1 10251097
12:00+9ne111170100 0.1 10251087
15:00+10ne8965100 0.1 10241089
18:00+10ene8772100 0.1 1024918
21:00+11ene8874100 0.2 1025902
8 march, mon
mon800:00+10ne6676100 0.2 1024724
03:00+10nne5576100 0.2 1022651
06:00+10nne667993 0.0 1023623
09:00+10nne767696 0.0 1024713
12:00+11nne777496 0.0 1022779
15:00+11ne556898 0.0 1022626
18:00+12ene446837 0.0 1023922
21:00+12ene766942 0.1 1025877